Location: Albany
(35.0170°S, 117.8920°E)
Time: 16:12:42
(UTC+08:00)

Transit 2A - Pass Details

Date: 28 January 2021
Orbit: 601 x 958 km, 66.7° (Epoch: 02 March)

Event Time Altitude Azimuth Distance (km) Brightness Sun altitude
Rises 15:42:23 0° 298° (WNW) 2,994 9.8 42.5°
Reaches altitude 10° 15:45:03 10° 282° (WNW) 2,142 9.5 42.0°
Maximum altitude 15:48:52 22° 231° (SW) 1,556 8.5 41.2°
Drops below altitude 10° 15:52:59 10° 180° (S) 2,339 8.6 40.4°
Sets 15:56:03 0° 165° (SSE) 3,347 9.2 39.8°
